Regional Weather Roundup
Issued by NWS

Home | Current Version | Previous Version | Text Only | Print | Product List | Glossary On
Versions: 1 2 3 4 5 6 7 8 9 10 11 12 13 14 15 16 17 18 19 20 21 22 23 24 25 26 27 28 29 30 31 32 33 34 35 36 37 38 39 40 41 42 43 44 45 46 47 48 49 50
000
ASUS44 KOUN 231600
RWROK

WEATHER ROUNDUP FOR OKLAHOMA
NATIONAL WEATHER SERVICE NORMAN OK
1000 AM CST THU NOV 23 2017

NOTE: "FAIR" INDICATES FEW OR NO CLOUDS BELOW 12,000 FEET WITH NO
      SIGNIFICANT WEATHER AND/OR OBSTRUCTIONS TO VISIBILITY.

OKZ001>007-009>012-014-015-017-231700-
NORTHWEST OKLAHOMA AND THE PANHANDLE

CITY           SKY/WX    TMP DP  RH WIND       PRES   REMARKS
GAGE           SUNNY     55  33  43 SW7       30.12F
GUYMON         CLOUDY    62  40  44 N12       30.16F
ENID/WOODRING  SUNNY     50  32  50 CALM      30.10S
$$

OKZ016-021>023-033>039-044-045-231700-
SOUTHWEST OKLAHOMA

CITY           SKY/WX    TMP DP  RH WIND       PRES   REMARKS
LAWTON/REGL    SUNNY     48  27  44 CALM      30.15F
LAWTON/FT SILL SUNNY     48  30  49 S5        30.13F
FREDERICK      SUNNY     50  26  39 W5        30.12S HAZE
CLINTON        SUNNY     60  32  34 CALM      30.13S
HOBART         SUNNY     51  25  36 NW3       30.14S
$$

OKZ018>020-024>031-231700-
CENTRAL OKLAHOMA

CITY           SKY/WX    TMP DP  RH WIND       PRES   REMARKS
OKLAHOMA CITY  MOSUNNY   50  24  36 SW7       30.12F
OKC/WILEY POST SUNNY     51  25  36 S12       30.12F
OKC/TINKER AFB SUNNY     51  24  34 SW8       30.12S
STILLWATER     SUNNY     48  25  40 SW3       30.12F
GUTHRIE        SUNNY     50  26  39 SW8       30.11F
$$

OKZ008-013-054>072-231700-
NORTHEAST OKLAHOMA

CITY           SKY/WX    TMP DP  RH WIND       PRES   REMARKS
TULSA          MOSUNNY   49  22  34 S8        30.15F
TULSA/JONES    SUNNY     48  24  39 S6        30.15F
PONCA CITY     SUNNY     48  24  39 SW5       30.10F
BARTLESVILLE   SUNNY     47  27  45 SE3       30.13F
MUSKOGEE       SUNNY     47  30  51 S6        30.18F
$$

OKZ032-040>043-046>053-073>077-231700-
SOUTH CENTRAL/SOUTHEAST OKLAHOMA

CITY           SKY/WX    TMP DP  RH WIND       PRES   REMARKS
MCALESTER      MOSUNNY   51  27  39 SW8       30.19S
$$




USA.gov is the U.S. government's official web portal to all federal, state and local government web resources and services.